Weather History for KABQ - February, 2015

Change the Weather History Date:

Wednesday, February 11, 2015

  Actual Average Record
Temperature  
Mean Temperature 45 °F 40 °F  
Max Temperature 51 °F 52 °F 72 °F (1957)
Min Temperature 39 °F 30 °F 2 °F (1929)
Degree Days  
Heating Degree Days 20 24  
Month to date heating degree days 182 281  
Since 1 July heating degree days 2503 2923  
Cooling Degree Days 0 0  
Month to date cooling degree days 0 0  
Year to date cooling degree days 0 0  
Moisture  
Dew Point 30 °F    
Average Humidity 47    
Maximum Humidity 65    
Minimum Humidity 29    
Precipitation  
Precipitation T in 0.02 in 0.25 in (2005)
Month to date precipitation T 0.18  
Year to date precipitation 0.70 0.56  
Snow  
Snow 0.00 in - - ()
Month to date snowfall 0.0  
Since 1 July snowfall 5.4  
Snow Depth 0.00 in    
Sea Level Pressure  
Sea Level Pressure 30.20 in    
Wind  
Wind Speed 16 mph (East)    
Max Wind Speed 33 mph    
Max Gust Speed 39 mph    
Visibility 10 miles    
Events Rain    
T = Trace of Precipitation, MM = Missing Value Source: NWS Daily Summary

Daily Weather History Graph

Daily Weather History Graph

Search for Another Location

Airport or City:

Trip Planner

Search our weather history database for the weather conditions in past years. The results will help you decide how hot, cold, wet, or windy it might be!

Date:

Astronomy

Feb. 11, 2015 Rise Set
Actual Time 6:56 AM MST 5:45 PM MST
Civil Twilight 6:30 AM MST 6:11 PM MST
Nautical Twilight 6:00 AM MST 6:41 PM MST
Astronomical Twilight 5:31 AM MST 7:10 PM MST
Moon 12:02 AM MST (2/11) 11:04 AM MST (2/11)
Length of Visible Light 11h 40m
Length of Day
10h 48m
Waning Gibbous, 54% of the Moon is Illuminated
Feb 11
Waning Gibbous
Feb 11
Last Quarter
Feb 18
New
Feb 25
First Quarter
Mar 5
Full

Hourly Weather History & Observations

Time (MST) Temp. Windchill Dew Point Humidity Pressure Visibility Wind Dir Wind Speed Gust Speed Precip Events Conditions
12:52 AM 46.9 °F - 21.0 °F 36% 29.91 in 10.0 mi NNE 6.9 mph - N/A   Partly Cloudy
1:52 AM 46.9 °F - 23.0 °F 39% 29.93 in 10.0 mi East 13.8 mph - N/A   Scattered Clouds
2:52 AM 48.0 °F - 23.0 °F 37% 29.95 in 10.0 mi Calm Calm - N/A   Scattered Clouds
3:52 AM 48.9 °F - 25.0 °F 39% 29.94 in 10.0 mi East 28.8 mph 34.5 mph N/A   Scattered Clouds
4:52 AM 46.9 °F - 28.0 °F 48% 29.99 in 10.0 mi East 24.2 mph 38.0 mph N/A   Partly Cloudy
5:52 AM 46.0 °F 40.6 °F 28.9 °F 51% 30.05 in 10.0 mi East 11.5 mph 26.5 mph N/A   Overcast
6:52 AM 45.0 °F 39.3 °F 30.9 °F 58% 30.12 in 10.0 mi ESE 11.5 mph 16.1 mph N/A   Mostly Cloudy
7:52 AM 44.1 °F 36.5 °F 32.0 °F 63% 30.14 in 10.0 mi East 17.3 mph 36.8 mph N/A   Mostly Cloudy
8:52 AM 44.1 °F 35.4 °F 33.1 °F 65% 30.17 in 10.0 mi East 21.9 mph 28.8 mph N/A   Mostly Cloudy
9:52 AM 44.1 °F 38.1 °F 32.0 °F 63% 30.20 in 10.0 mi ESE 11.5 mph 18.4 mph N/A   Overcast
10:13 AM 44.1 °F 37.4 °F 33.1 °F 65% 30.28 in 10.0 mi ENE 13.8 mph 25.3 mph N/A   Overcast
10:52 AM 44.1 °F 35.0 °F 33.1 °F 65% 30.22 in 10.0 mi East 24.2 mph 29.9 mph N/A   Overcast
11:52 AM 45.0 °F 38.5 °F 32.0 °F 60% 30.23 in 10.0 mi East 13.8 mph 27.6 mph 0.00 in Rain Light Rain
12:52 PM 45.0 °F 37.6 °F 33.1 °F 63% 30.25 in 10.0 mi ESE 17.3 mph 27.6 mph 0.00 in   Mostly Cloudy
1:52 PM 46.0 °F 42.5 °F 34.0 °F 63% 30.24 in 10.0 mi West 6.9 mph - N/A   Mostly Cloudy
2:30 PM 46.9 °F - 33.1 °F 59% 30.31 in 10.0 mi East 21.9 mph 28.8 mph N/A   Mostly Cloudy
2:52 PM 46.9 °F - 32.0 °F 56% 30.23 in 10.0 mi East 21.9 mph 28.8 mph N/A   Mostly Cloudy
3:52 PM 48.9 °F - 30.9 °F 50% 30.24 in 10.0 mi East 20.7 mph 26.5 mph N/A   Mostly Cloudy
4:52 PM 46.9 °F - 30.9 °F 54% 30.27 in 10.0 mi East 25.3 mph 31.1 mph N/A   Mostly Cloudy
5:52 PM 45.0 °F 36.9 °F 30.9 °F 58% 30.31 in 10.0 mi East 20.7 mph - N/A   Mostly Cloudy
6:52 PM 44.1 °F 38.1 °F 30.9 °F 60% 30.34 in 10.0 mi ESE 11.5 mph - N/A   Mostly Cloudy
7:52 PM 43.0 °F 34.8 °F 30.9 °F 62% 30.35 in 10.0 mi East 18.4 mph - N/A   Scattered Clouds
8:52 PM 43.0 °F 35.4 °F 30.0 °F 60% 30.37 in 10.0 mi East 16.1 mph 25.3 mph N/A   Mostly Cloudy
9:52 PM 42.1 °F 34.2 °F 30.0 °F 62% 30.38 in 10.0 mi ESE 16.1 mph - N/A   Mostly Cloudy
10:52 PM 42.1 °F 34.9 °F 28.9 °F 60% 30.38 in 10.0 mi SE 13.8 mph - N/A   Mostly Cloudy
11:52 PM 39.9 °F 35.1 °F 28.9 °F 65% 30.38 in 10.0 mi ESE 6.9 mph - N/A   Scattered Clouds